Location: Holyhead Bay
(53.3667°N, 4.6667°W)
Time: 05:38:31
(UTC+00:00)

ADEOS Rocket - Pass Details

Date: 17 April 2021
Orbit: 859 x 1306 km, 98.7° (Epoch: 12 May)

Event Time Altitude Azimuth Distance (km) Brightness Sun altitude
Rises 23:36:06 0° 77° (ENE) 3,905 6.2 -25.2°
Reaches altitude 10° 23:40:44 10° 47° (NE) 3,060 6.0 -25.3°
Maximum altitude 23:42:52 12° 29° (NNE) 2,986 6.2 -25.4°
Drops below altitude 10° 23:45:03 10° 12° (NNE) 3,153 6.6 -25.4°
Sets 23:50:02 0° 343° (NNW) 4,210 7.6 -25.5°
